Regional Weather Roundup
Issued by NWS

Home | Current Version | Previous Version | Graphics & Text | Print | Product List | Glossary On
Versions: 1 2 3 4 5 6 7 8 9 10 11 12 13 14 15 16 17 18 19 20 21 22 23 24 25 26 27 28
000
ASUS45 KTFX 242010
RWRMT
MONTANA REGIONAL WEATHER ROUNDUP
NATIONAL WEATHER SERVICE GREAT FALLS MT
100 PM MST FRI NOV 24 2017

NOTE: "FAIR" INDICATES FEW OR NO CLOUDS BELOW 12000 FEET WITH NO
SIGNIFICANT WEATHER AND/OR OBSTRUCTIONS TO VISIBILITY.

MTZ001>007-043-242100-
WEST OF THE DIVIDE

CITY           SKY/WX    TMP DP  RH WIND       PRES   REMARKS
KALISPELL      CLOUDY    45  30  55 SW13G24   29.98R
MISSOULA       CLOUDY    45  29  53 W14       30.04R
BUTTE          FAIR      42  17  36 W10       29.97R
MULLAN PASS    LGT SNOW  27  24  89 VRB7      30.00R VSB 1   WCI  19
ANACONDA         N/A     43  19  39 W16G22    29.97S
DEER LODGE       N/A     43  27  52 N9        29.98F
EUREKA           N/A     46  28  49 MISG      29.97R
HAMILTON         N/A     46  19  34 S7        30.04S
LIBBY            N/A     46  30  53 SW6       30.00R
$$

MTZ008-052>055-242100-
SOUTHWEST MONTANA

CITY           SKY/WX    TMP DP  RH WIND       PRES   REMARKS
BOZEMAN        FAIR      48  26  42 CALM      29.96R
DILLON         FAIR      44  20  38 SW14      29.98S
W YELLOWSTONE  FAIR      43  21  42 W9G21     30.00R
ENNIS          SUNNY     48  19  32 SW13      30.03R
TWIN BRIDGES     N/A     49  19  30 CALM      29.97
$$

MTZ009-010-012-014-046-048-049-054-242100-
EAST SLOPES AND CENTRAL MONTANA

CITY           SKY/WX    TMP DP  RH WIND       PRES   REMARKS
CUT BANK       FAIR      44  25  47 W16       29.83S
GREAT FALLS    FAIR      44  20  38 W28G35    29.88R
MALMSTROM AFB  FAIR      47  21  35 W24G30    29.89R
HELENA         FAIR      47  25  42 W13       29.97R
BOWMANS CRNR   FAIR      42  22  45 SW20      29.88S
CHOTEAU          N/A     46  21  36 W15       29.89R
FAIRFIELD      FAIR      44  22  40 W17       29.86S
POWER          FAIR      45  24  43 W15       29.86R
RAYNESFORD     FAIR      46  18  33 W25G33    29.86S
ULM            FAIR      45  21  38 W24G36    29.90R
$$

MTZ011-013-016-021-045-047-050-051-242100-
NORTH CENTRAL MONTANA

CITY           SKY/WX    TMP DP  RH WIND       PRES   REMARKS
HAVRE          FAIR      50  26  39 W26G35    29.80F
LEWISTOWN      FAIR      46  20  35 NW9       29.86R
N BAR RANCH    FAIR      45  16  31 NW16      29.86F
CHINOOK          N/A     48  27  43 W17G28    29.80S
DENTON         FAIR      47  21  36 W24       29.83R
GEYSER         FAIR      45  19  35 W30G38    29.85R
GRASS RANGE    FAIR      46  18  32 NW13G22   29.82R
STANFORD       FAIR      47  16  29 W18       29.85R
WINIFRED       FAIR      47  19  33 W18G26    29.85R
$$

MTZ017>020-022>027-061-062-242100-
NORTHEAST MONTANA

CITY           SKY/WX    TMP DP  RH WIND       PRES   REMARKS
GLASGOW        FAIR      48  31  51 NW12      29.78S
GLENDIVE       FAIR      51  32  48 NW17      29.78F
JORDAN           N/A     50  28  42 W16       29.82R
SIDNEY         FAIR      52  33  48 NW18      29.76R
WOLF POINT     FAIR      51  35  54 W17       29.78R
MALTA          SUNNY     48  30  49 W20       29.80R
PLENTYWOOD       N/A     48  32  53 W24       29.70R
POPLAR           N/A     50  34  53 W15       29.76S
SCOBEY           N/A     48  31  52 W14       29.73
$$

MTZ028>42-056>058-242100-
SOUTHCENTRAL AND SOUTHEAST MONTANA

CITY           SKY/WX    TMP DP  RH WIND       PRES   REMARKS
BAKER          FAIR      49  35  58 NW17G23   29.81R
BILLINGS       FAIR      54  20  26 VRB3      29.85F
LIVINGSTON     FAIR      49  27  42 W29G37    29.87F
MILES CITY     FAIR      53  29  39 NW14      29.83F
BIG TIMBER     SUNNY     52  19  28 W30       29.88F
EKALAKA          N/A     44  32  63 W15       29.83
FORSYTH          N/A     52  21  30 NW15G23   29.84F
HARLOWTON      PTSUNNY   44  21  41 W24       29.87R
LAUREL           N/A     55  21  26 NW8       29.86F
ROUNDUP          N/A     50  14  23 SW18      29.78S
$$

REGIONAL REPORTS...DAKOTAS

CITY           SKY/WX    TMP DP  RH WIND       PRES   REMARKS
WILLISTON      FAIR      52  31  44 NW20G29   29.72R
MINOT          FAIR      51  32  48 W29G36    29.62R
DICKINSON      FAIR      51  34  52 NW20      29.73R
BEACH          FAIR      48  34  57 NW18      29.80S
CROSBY         FAIR      46  32  57 NW25      29.69R
TIOGA          FAIR      46  39  76 W20G28    29.69R
WATFORD CITY   FAIR      50  34  53 NW18      29.72R
BISMARCK       FAIR      55  38  52 W21G30    29.69R
GRAND FORKS    FAIR      45  37  73 NW15G25   29.50R
FARGO          FAIR      51  39  63 NW23G30   29.50R
BUFFALO SD       N/A     51  35  54 W26G33    29.75
RAPID CITY     FAIR      54  24  31 NW33G41   29.84R
$$

REGIONAL REPORTS...WYOMING/IDAHO/WASHINGTON

CITY           SKY/WX    TMP DP  RH WIND       PRES   REMARKS
GILLETTE       FAIR      49  22  34 N20G26    29.88R
SHERIDAN       FAIR      51  20  29 N16       29.89F
BUFFALO WY     FAIR      47  13  25 N17G25    29.90F
CODY           FAIR      54  22  28 W16G31    29.89F
YELLOWSTONE LA   N/A     39  19  44 W14G26    30.03R WCI  31
IDAHO FALLS    CLOUDY    47  44  90 S16       30.04S
SALMON         FAIR      49  27  42 N3        30.03S
BOISE          FAIR      52  34  50 W7        30.12S
SPOKANE        PTSUNNY   44  36  73 SW16      30.06R
$$

REGIONAL REPORTS...ALBERTA

CITY           SKY/WX    TMP DP  RH WIND       PRES   REMARKS
EDMONTON       MOSUNNY   39  28  65 W8        29.67R
CALGARY        PTSUNNY   46  19  34 W10G18    29.71R
LETHBRIDGE     MOSUNNY   46  27  46 W31G41    29.76R
$$

REGIONAL REPORTS...SASKATCHEWAN

CITY           SKY/WX    TMP DP  RH WIND       PRES   REMARKS
SWIFT CURRENT  PTSUNNY   41  30  65 W15G21    29.68S
REGINA         PTSUNNY   37  32  81 NW10      29.65R WCI  30
SASKATOON      PTSUNNY   36  30  80 W8        29.66R WCI  29
$$




USA.gov is the U.S. government's official web portal to all federal, state and local government web resources and services.